User: anonymous   Login
Location: Montague
(41.3030°N, 74.7940°W)
Time: 23:29:21
(UTC-04:00)
Language:

Cosmos 1461 - Orbit

View from above orbital plane
View from above orbital plane
View from above satellite
View from above satellite

Ground track
Ground track

The orbit data is extracted from the following two-line orbital elements,

1 14064U 83044A   15180.84952794  .00000710  00000-0  77247-4 0  9996
2 14064 065.0020 344.7575 0117669 321.7965 037.4851 14.91609762616127
Epoch (UTC): 29 June 2015 20:23:19
Eccentricity: 0.0117669
inclination: 65.0020°
perigee height: 511 km
apogee height: 675 km
right ascension of ascending node: 344.7575°
argument of perigee: 321.7965°
revolutions per day: 14.91609762
mean anomaly at epoch: 37.4851°
orbit number at epoch: 61612

The dashed part of the orbit path shows where the satellite is in the earth's shadow,  

DLR